METEOR 2-6 DEB, 45500

Orbit data source: Space-Track

METEOR 2-6 DEB, 45500 is space debris in LEO originally from a launch on Tue, 09 Sep 1980 UTC launched from the Plesetsk Missile And Space Complex (PKMTR). Debris objects in space refer to the collection of defunct objects orbiting the Earth. Examples of debris include non-operational satellites, rocket bodies, and fragments generated from explosions, collisions, or faulty payload assembly.

Loading next visibility...
Identifier
45500, 1980-073U
Orbit
LEO
Country
Flag of CISCIS
Related business
Manufacturer
Unknown
Mission
Spacecraft
Bus & Motor
Unknown
Mass
Unknown
Launch date (UTC)
1980-09-09 (45 years ago)
Launch vehicle
Unknown
Launch site
Plesetsk Missile And Space Complex (PKMTR)
Object type
Payload
Rocket body
Debris
Shape & HBR
Unknown
Radar Cross Section
Small (<0.1 m²)

Expand to show TLE details & history
Last TLE update: 4 days ago

TLE from 4 days ago
0 METEOR 2-6 DEB
1 45500U 80073U   25256.96211980  .00002587  00000-0  10553-2 0  9996
2 45500  81.2220 339.6076 0055683 140.4956 220.0304 14.26317557461936
Epoch: 2025-09-13T23:05Z
TLE epoch observation values (Epoch: 2025-09-13T23:05:27.15Z)
Latitude
-0.00003°
Longitude
0.05651°
Altitude
837.708 km
Speed
7.418 km/s
True Right ascension
22h 38m 25s
True Declination
0° 00' 00"
Sunlit
Object was in full shadow at epoch
Visualization orbit readout
Latitude
Unknown
Longitude
Unknown
Altitude
Unknown
Speed
Unknown
Apparent Right ascension
Unknown
Apparent Declination
Unknown
Sunlit
N/A
Visualization observer readout
Local Sidereal Time
02:55:48
Azimuth
Unknown
Elevation
Unknown
Doppler factor
Unknown
Orbital elements
Apogee altitude
841.196 km
Perigee altitude
761.243 km
Semi-major axis
7,179.357 km
Eccentricity
0.00557
Inclination
81.222°
RAAN
339.6076°
Arg. of periapsis
140.4956°
True anomaly
219.62217°
Mean anomaly
220.0304°
Eccentric anomaly
219.82607°
Mean motion
3.56792 °/min
Orbital period
100.9 mins
BSTAR
0.0010553
Loading maneuver chart data...
Computing Atmospheric mass density...
Loading historical data...
Loading historical data...
Loading historical data...
Loading historical data...
Loading historical data...
Loading historical data...
Loading historical data...

Documentation

Showing up to 5 results
|